Simultaneous Nadir Overpasses (SNOs) Predictions

Prediction of SNOs between AQUA and GOES-15 Satellite Orbit:

Table of predicted SNOs for the next 14.0 days since TLE Epoch: 2/25/2017
Index Date Time (AQUA) AQUA Lat,Lon GOES-15 Lat,Lon Distance(km) Time Diff (sec)
1 02/26/2017 22:35:07 0.09,-134.88 0.01,-135.22 38.51 80
2 02/28/2017 22:22:56 0.70,-131.92 0.02,-135.17 369.31 80
3 03/01/2017 10:44:11 0.42,-137.07 -0.01,-135.14 220.17 80
4 03/03/2017 10:32:01 -0.24,-134.12 -0.01,-135.08 109.90 80
5 03/03/2017 22:53:25 -0.90,-139.30 0.01,-135.08 480.10 80
6 03/05/2017 10:19:50 -0.86,-131.16 -0.01,-135.02 439.18 80
7 03/05/2017 22:41:14 -0.28,-136.34 0.01,-135.02 150.98 80
8 03/07/2017 22:29:03 0.35,-133.38 0.00,-134.94 177.66 80
9 03/08/2017 10:50:18 0.78,-138.53 -0.00,-134.90 412.67 80
10 03/10/2017 10:38:07 0.15,-135.57 -0.00,-134.83 84.40 80




NCC Satellite Simultaneous Nadir Overpasses (SNOs) Prediction Service
